Location: Unspecified
(0.0000°N, 0.0000°E)
Time: 00:01:45
(UTC+00:00)

Vanguard 2 - Visible Passes

Search period start: 19 July 2018 00:00
Search period end: 29 July 2018 00:00
Orbit: 553 x 2939 km, 32.9° (Epoch: 18 July)

Date Brightness Start Highest point End Pass type
(mag) Time Alt. Az. Time Alt. Az. Time Alt. Az.
19 Jul 9.3 03:59:31 29° SSE 03:59:31 29° SSE 04:02:22 10° SSE visible
19 Jul 11.9 19:07:12 10° NW 19:16:57 19° N 19:27:49 10° NNE visible
19 Jul 11.7 21:25:34 10° NNW 21:35:33 17° N 21:44:47 10° NE visible
19 Jul 11.2 23:38:52 10° NNW 23:47:35 25° N 23:47:35 25° N visible
20 Jul 9.5 04:17:24 21° S 04:17:24 21° S 04:19:45 10° SSE visible
20 Jul 11.9 19:27:54 10° NW 19:36:59 16° N 19:46:44 10° NNE visible
20 Jul 11.5 21:44:19 10° NNW 21:55:32 19° NNE 22:02:13 15° NE visible
20 Jul 11.3 23:56:44 10° NW 00:03:33 25° NNW 00:03:33 25° NNW visible
21 Jul 9.8 04:35:06 15° SSW 04:35:06 15° SSW 04:36:41 10° S visible
21 Jul 11.8 19:48:14 10° NNW 19:57:08 16° N 20:06:25 10° NNE visible
21 Jul 11.3 22:02:35 10° NNW 22:15:15 23° NNE 22:18:15 22° NNE visible
22 Jul 11.4 00:14:40 10° NW 00:19:35 22° NNW 00:19:35 22° NNW visible
22 Jul 11.8 20:07:52 10° NNW 20:17:19 16° N 20:26:55 10° NE visible
22 Jul 11.1 22:20:37 10° NNW 22:34:19 28° NNE 22:34:19 28° NNE visible
23 Jul 11.6 00:32:43 10° NW 00:35:40 17° NW 00:35:40 17° NW visible
23 Jul 11.9 18:11:31 10° NW 18:19:03 16° N 18:27:46 10° NNE visible
23 Jul 11.7 20:26:44 10° NNW 20:37:22 18° NNE 20:47:55 10° NE visible
23 Jul 11.0 22:38:31 10° NW 22:50:26 33° N 22:50:26 33° N visible
24 Jul 11.8 00:50:58 10° NW 00:51:48 12° NW 00:51:48 12° NW visible
24 Jul 11.9 18:31:53 10° NNW 18:39:05 14° N 18:47:08 10° NNE visible
24 Jul 11.4 20:45:03 10° NNW 20:57:13 22° NNE 21:05:16 16° NE visible
24 Jul 11.0 22:56:25 10° NW 23:06:37 35° NNW 23:06:37 35° NNW visible
25 Jul 11.8 18:51:33 10° NNW 18:59:11 15° N 19:07:33 10° NE visible
25 Jul 11.2 21:03:05 10° NNW 21:16:46 27° NNE 21:21:29 24° NE visible
25 Jul 11.1 23:14:23 10° NW 23:22:51 33° NNW 23:22:51 33° NNW visible
26 Jul 11.7 19:10:23 10° NNW 19:19:13 16° NNE 19:28:46 10° NE visible
26 Jul 11.0 21:20:57 10° NNW 21:36:04 33° NNE 21:37:46 33° NE visible
26 Jul 11.3 23:32:31 10° NW 23:39:07 28° NW 23:39:07 28° NW visible
27 Jul 11.6 19:28:39 10° NNW 19:39:04 19° NNE 19:50:12 10° ENE visible
27 Jul 10.8 21:38:48 10° NW 21:54:05 41° NNE 21:54:05 41° NNE visible
27 Jul 11.5 23:50:50 10° NW 23:55:27 22° NW 23:55:27 22° NW visible
28 Jul 11.4 19:46:35 10° NNW 19:58:39 23° NNE 20:09:06 14° ENE visible
28 Jul 10.7 21:56:41 10° NW 22:10:28 48° N 22:10:28 48° N visible
